Dewpoint
14 14 14 15 16 15 16 17 17 17 18 19 19 20 20 21 20 20 21 21 22 22
14 15 15 15 15 16 16 17 17 17 18 19 19 20 20 20 20 20 20 21 22 22
17 16 16 16 16 17 17 18 18 19 19 19 19 20 20 20 20 20 21 20 21 21
18 18 17 19 18 17 17 18 18 19 19 19 19 19 19 20 20 20 20 20 20 20
18 18 19 18 19 18 18 19 19 19 19 19 19 19 19 19 19 19 19 19 19 19
17 18 18 19 19 20 20 20 20 19 20 20 19 19 20 19 19 19 19 20 19 19
16 17 18 19 19 20 21 22 22 21 21 21 21 20 20 19 19 19 19 19 20 20
13 17 17 19 20 21 21 22 22 23 23 23 22 22 21 20 20 19 19 20 20 21
13 14 17 18 19 20 21 22 23 24 25 25 24 27 28 27 27 21 20 20 20 21
13 14 15 17 18 20 22 24 24 25 27 26 26 29 30 29 27 28 27 24 23 23
14 14 15 16 18 20 23 25 25 26 27 29 27 30 30 30 29 28 25 24 23 23
14 15 15 16 18 21 24 24 25 27 28 29 28 30 31 31 29 26 24 24 25 25
15 15 17 17 21 23 23 25 26 26 28 29 30 32 34 33 30 27 24 24 24 27
14 15 17 20 21 22 23 24 25 26 26 28 29 30 33 33 32 30 28 26 26 26
Lifted_Index
15 14 14 15 15 15 15 15 15 15 15 15 16 16 16 16 16 17 17 17 18 20
14 14 14 15 15 15 15 15 15 15 15 15 15 15 15 16 16 16 16 16 17 18
14 14 14 14 14 14 14 14 14 14 14 14 14 14 14 14 15 15 16 16 16 16
14 14 14 14 13 13 13 13 13 13 13 13 13 13 13 13 14 14 15 15 15 15
14 13 13 13 12 12 12 12 12 12 11 11 11 12 12 12 13 13 14 14 15 14
13 13 12 12 11 11 11 11 10 10 10 10 10 11 11 11 11 12 13 14 14 14
13 12 12 11 11 10 10 10 9 9 9 9 9 10 10 10 10 11 12 13 13 14
12 12 11 11 10 10 9 9 9 8 8 9 9 9 9 9 9 10 11 12 13 13
12 11 11 10 10 10 9 9 8 8 8 8 8 8 8 9 9 10 11 12 12 13
11 11 11 10 10 10 9 8 8 7 7 7 7 8 8 8 9 9 10 11 12 12
11 11 11 10 10 10 9 9 8 8 7 7 7 7 7 8 8 9 10 11 11 12
11 11 11 10 10 10 10 9 9 8 8 7 7 7 7 7 8 8 9 10 10 10
11 11 11 11 11 10 10 10 9 8 8 8 7 7 6 6 7 7 7 8 8 8
12 11 11 11 11 11 10 10 9 9 9 8 8 7 6 6 6 6 6 6 7 7